Regional Weather Roundup
Issued by NWS State College, PA

Home | Current Version | Previous Version | Text Only | Print | Product List | Glossary On
Versions: 1 2 3 4 5 6 7 8 9 10 11 12 13 14 15 16 17 18 19 20 21 22 23 24 25 26 27 28 29 30 31 32 33 34 35 36 37 38 39 40 41 42 43 44 45 46 47 48 49 50
787
ASUS41 KCTP 311603
RWRCTP

REGIONAL WEATHER ROUNDUP
NATIONAL WEATHER SERVICE STATE COLLEGE PA
1200 PM EDT WED AUG 31 2016

Note: "fair" indicates few or no clouds below 12,000 feet with no
significant weather and/or obstructions to visibility.

* = STATION THAT DOES NOT REPORT PRECIPITATION /E.G. RAIN...SNOW...ETC/
    THUNDER OR FOG.

PAZ002>004-007>009-013>016-020>023-029>032-311700-
WESTERN PENNSYLVANIA

CITY           SKY/WX    TMP DP  RH WIND       PRES   REMARKS
ERIE           CLOUDY    71  68  90 S10       29.97S
MEADVILLE      RAIN      66  64  93 E3        30.02F FOG
FRANKLIN*        N/A     64  61  88 NE5       30.04F
NEW CASTLE     CLOUDY    73  65  75 NE3       30.01F
BEAVER COUNTY  CLOUDY    75  59  57 CALM      30.02S
BUTLER*        NOT AVBL
PITTSBURGH INT CLOUDY    81  57  43 CALM      30.01F
PITTSBURGH     CLOUDY    76  62  62 SE5       30.01F
INDIANA*       PTSUNNY   72  63  73 W3        30.06S
LATROBE        CLOUDY    75  64  69 SW7       30.03F
WASHINGTON CO* CLOUDY    77  63  61 CALM      30.02F
$$

PAZ004>006-010>012-017>019-024>028-033>037-041-042-045-046-049>053-311700-
CENTRAL PENNSYLVANIA

CITY           SKY/WX    TMP DP  RH WIND       PRES   REMARKS
BRADFORD       LGT RAIN  64  63  96 CALM      30.04F
DUBOIS         CLOUDY    69  58  67 NW6       30.03F
CLEARFIELD       N/A     70  62  76 CALM      30.03
JOHNSTOWN      CLOUDY    74  62  66 W6        30.06S
ALTOONA        CLOUDY    79  67  66 SW5       30.02F
STATE COLLEGE  SUNNY     72  66  83 CALM      30.01F
WILLIAMSPORT   MOSUNNY   72  63  73 CALM      29.98F
SELINSGROVE    CLOUDY    81  68  64 CALM      29.98S
FT INDIANTOWN  PTSUNNY   80  66  62 SW5       29.98F
CAPITAL CITY   MOSUNNY   85  67  54 VRB3      29.96F
HARRISBURG     CLOUDY    85  69  58 CALM      29.95F
YORK           MOSUNNY   85  69  58 VRB5      29.97F
$$

PAZ038>040-043-044-047-048-054-055-060>062-067>071-311700-
EASTERN PENNSYLVANIA

CITY           SKY/WX    TMP DP  RH WIND       PRES   REMARKS
SCRANTON       CLOUDY    76  64  66 W3        29.99F
MOUNT POCONO   CLOUDY    74  62  66 SW7       30.04F
ALLENTOWN      CLOUDY    85  63  47 W8        29.97F
QUAKERTOWN*    MOSUNNY   84  63  48 W8        29.99F
READING        SUNNY     85  66  53 CALM      29.97F
LANCASTER      SUNNY     84  67  56 W5        29.98F
COATESVILLE    SUNNY     84  66  54 VRB6      30.01F
POTTSTOWN      MOSUNNY   85  64  49 CALM      29.99F
BLUE BELL      MOSUNNY   84  64  51 S3        29.97F
DOYLESTOWN     CLOUDY    85  64  49 VRB5      29.98F
WILLOW GROVE   NOT AVBL
NORTH PHILA    MOSUNNY   87  64  46 VRB7      29.99F
PHILADELPHIA   MOSUNNY   85  63  47 SW8       29.98F
$$




USA.gov is the U.S. government's official web portal to all federal, state and local government web resources and services.